This is the latest recevied weather packets stored in our database for station/object N9NDF. If no packets are shown the sender has not sent any weather packets the latest 10 day(s).
| Time | Temp. | Humidity | Pressure | Rain* | Wind** | Luminosity | Snow |
|---|---|---|---|---|---|---|---|
| 1777308354 | 15.56° C | 98% | 983.3 hPa | 11.94 mm | - | 28 W/m² | - |
| 1777308216 | 15.56° C | 98% | 983.3 hPa | 12.7 mm | - | 26 W/m² | - |
| 1777308157 | 15.56° C | 98% | 983.2 hPa | 13.72 mm | - | 25 W/m² | - |
| 1777308096 | 15.56° C | 98% | 982.8 hPa | 15.75 mm | - | 27 W/m² | - |
| 1777308037 | 15.56° C | 98% | 982.7 hPa | 17.27 mm | - | 27 W/m² | - |
| 1777307974 | 15.56° C | 98% | 982.9 hPa | 19.05 mm | - | 28 W/m² | - |
| 1777307913 | 15.56° C | 98% | 982.9 hPa | 19.56 mm | - | 29 W/m² | - |
| 1777307853 | 15.56° C | 98% | 983 hPa | 19.81 mm | - | 30 W/m² | - |
| 1777307793 | 15.56° C | 98% | 983.3 hPa | 20.32 mm | - | 30 W/m² | - |
| 1777307733 | 15.56° C | 98% | 983.7 hPa | 20.57 mm | - | 28 W/m² | - |
| 1777307674 | 15.56° C | 98% | 983.9 hPa | 21.34 mm | - | 27 W/m² | - |
| 1777307613 | 15.56° C | 98% | 984.3 hPa | 21.84 mm | - | 25 W/m² | - |
| 1777307554 | 15.56° C | 98% | 984.5 hPa | 23.11 mm | - | 23 W/m² | - |
| 1777307494 | 15.56° C | 98% | 984.6 hPa | 24.64 mm | - | 22 W/m² | - |
| 1777307434 | 15.56° C | 98% | 984.5 hPa | 26.42 mm | - | 22 W/m² | - |
| 1777307373 | 15.56° C | 98% | 984.6 hPa | 27.69 mm | - | 21 W/m² | - |
| 1777307313 | 15.56° C | 98% | 985 hPa | 28.19 mm | - | 20 W/m² | - |
| 1777307253 | 15.56° C | 98% | 985.3 hPa | 28.45 mm | - | 21 W/m² | - |
| 1777307183 | 15.56° C | 98% | 985.5 hPa | 28.45 mm | - | 20 W/m² | - |
| 1777307124 | 15.56° C | 98% | 985.6 hPa | 28.45 mm | - | 20 W/m² | - |
| 1777307064 | 15.56° C | 98% | 985.7 hPa | 28.7 mm | - | 20 W/m² | - |
| 1777307004 | 15.56° C | 98% | 985.7 hPa | 28.7 mm | - | 20 W/m² | - |
| 1777306944 | 15.56° C | 97% | 985.7 hPa | 28.96 mm | - | 20 W/m² | - |
| 1777306882 | 15.56° C | 97% | 985.7 hPa | 28.7 mm | - | 20 W/m² | - |
| 1777306823 | 15.56° C | 97% | 985.7 hPa | 28.7 mm | - | 20 W/m² | - |
* Rain latest hour (hover to see other rain measurements)
** Current wind speed in m/s (hover to see current wind gust speed)